SATORO-T2

Last updated on Mon Sep 16 2024 00:02:03 GMT+0000 (Coordinated Universal Time)

1 60477U 24149K 24259.16481322 .00029206 00000+0 13973-2 0 9996 2 60477 97.4390 334.2577 0002165 10.6150 349.5130 15.18929344 4450
UTC large
Height (km)
Speed (km/s)
/
Latitude / Longitude
Inclination (degrees)
Orbital Period (minutes)
Azimuth
Elevation
Range (km)
Doppler Factor

Next 0 passes for location: London (51.5072 / 0.1276)

Sorry there are no passes over London.